Tracking 19832 objects as of 25-Aug-2019
HD Live streaming from Space Station
objects crossing your sky now

SSA

Track SSA now!
10-day predictions
SSA is classified as:


NORAD ID: 13844
Int'l Code: 1983-008E
Perigee: 386.7 km
Apogee: 1,735.1 km
Inclination: 63.3 °
Period: 106.3 minutes
Semi major axis: 7431 km
RCS: Unknown
Launch date: February 9, 1983
Source: United States (US)
Launch site: AIR FORCE WESTERN TEST RANGE (AFWTR)
aabbcc
Your satellite tracking list
Your tracking list is empty




NASA's NSSDC Master Catalog

Two Line Element Set (TLE):
1 13844U 83008E   19236.54008258 -.00000047 +00000-0 +12011-4 0  9993
2 13844 063.2907 261.9456 0907164 089.9538 280.5298 13.55029911019461
Source of the keplerian elements: McCants